Change the Weather History Date:

Tuesday, December 11, 2012

  Actual Average Record
Temperature  
Mean Temperature 37 °F -  
Max Temperature 49 °F 48 °F 68 °F (1965)
Min Temperature 25 °F 28 °F 6 °F (1966)
Degree Days  
Heating Degree Days 28    
Moisture  
Dew Point 17 °F    
Average Humidity 49    
Maximum Humidity 66    
Minimum Humidity 31    
Precipitation  
Precipitation 0.00 in - - ()
Sea Level Pressure  
Sea Level Pressure 30.10 in    
Wind  
Wind Speed 5 mph (SSW)    
Max Wind Speed 12 mph    
Max Gust Speed 17 mph    
Visibility 10 miles    
Events      
Averages and records for this station are not official NWS values.
T = Trace of Precipitation, MM = Missing Value Source: NWS Daily Summary

Daily Weather History Graph

Daily Weather History Graph

Search for Another Location

Airport or City:

Trip Planner

Search our weather history database for the weather conditions in past years. The results will help you decide how hot, cold, wet, or windy it might be!

Date:

Astronomy

Dec. 11, 2012 Rise Set
Actual Time 7:34 AM CST 5:20 PM CST
Civil Twilight 7:05 AM CST 5:48 PM CST
Nautical Twilight 6:33 AM CST 6:20 PM CST
Astronomical Twilight 6:02 AM CST 6:51 PM CST
Moon 5:32 AM CST (12/11) 3:59 PM CST (12/11)
Length of Visible Light 10h 42m
Length of Day
9h 46m
Waning Crescent, 4% of the Moon is Illuminated
Dec 11
Waning Crescent
Dec 13
New
Dec 19
First Quarter
Dec 28
Full
Jan 4
Last Quarter

Hourly Weather History & Observations

Time (CST) Temp. Windchill Dew Point Humidity Pressure Visibility Wind Dir Wind Speed Gust Speed Precip Events Conditions
12:15 AM 26.6 °F 22.6 °F 13.5 °F 58% 30.06 in 10.0 mi South 3.5 mph - N/A   Clear
12:35 AM 27.5 °F 22.2 °F 13.5 °F 56% 30.06 in 10.0 mi South 4.6 mph - N/A   Clear
12:55 AM 27.1 °F 20.7 °F 13.3 °F 56% 30.07 in 10.0 mi South 5.8 mph - N/A   Clear
1:15 AM 27.5 °F 21.1 °F 13.8 °F 56% 30.06 in 10.0 mi South 5.8 mph - N/A   Clear
1:35 AM 27.7 °F 22.4 °F 13.6 °F 56% 30.06 in 10.0 mi South 4.6 mph - N/A   Clear
1:55 AM 27.7 °F 22.4 °F 14.0 °F 57% 30.06 in 10.0 mi SSW 4.6 mph - N/A   Clear
2:15 AM 27.5 °F 23.6 °F 14.0 °F 57% 30.06 in 10.0 mi SSW 3.5 mph - N/A   Clear
2:35 AM 27.1 °F 23.2 °F 14.0 °F 58% 30.06 in 10.0 mi SSW 3.5 mph - N/A   Clear
2:55 AM 27.5 °F 23.6 °F 14.5 °F 58% 30.06 in 10.0 mi SSW 3.5 mph - N/A   Clear
3:15 AM 27.5 °F 21.1 °F 14.7 °F 59% 30.06 in 10.0 mi SW 5.8 mph - N/A   Clear
3:35 AM 28.4 °F - 14.7 °F 57% 30.06 in 10.0 mi Calm Calm - N/A   Clear
3:55 AM 28.2 °F - 14.7 °F 57% 30.06 in 10.0 mi Calm Calm - N/A   Clear
4:15 AM 28.9 °F - 14.7 °F 55% 30.06 in 10.0 mi Calm Calm - N/A   Clear
4:35 AM 29.1 °F 22.1 °F 14.9 °F 55% 30.05 in 10.0 mi SW 6.9 mph - N/A   Clear
4:55 AM 25.3 °F 18.5 °F 14.2 °F 63% 30.05 in 10.0 mi SW 5.8 mph - N/A   Clear
5:15 AM 27.1 °F 23.2 °F 14.7 °F 60% 30.05 in 10.0 mi SW 3.5 mph - N/A   Clear
5:35 AM 28.0 °F 20.8 °F 15.3 °F 59% 30.05 in 10.0 mi SW 6.9 mph - N/A   Clear
5:55 AM 27.7 °F 21.3 °F 15.6 °F 61% 30.05 in 10.0 mi SSW 5.8 mph - N/A   Clear
6:15 AM 27.5 °F - 15.4 °F 61% 30.06 in 10.0 mi Calm Calm - N/A   Clear
6:35 AM 27.9 °F - 15.4 °F 60% 30.06 in 10.0 mi Calm Calm - N/A   Clear
6:55 AM 27.5 °F - 15.3 °F 60% 30.06 in 10.0 mi Calm Calm - N/A   Clear
7:15 AM 25.2 °F - 15.1 °F 66% 30.07 in 10.0 mi Calm Calm - N/A   Clear
7:55 AM 25.2 °F 20.9 °F 15.3 °F 66% 30.08 in 10.0 mi SW 3.5 mph - N/A   Clear
8:15 AM 25.3 °F - 15.1 °F 65% 30.09 in 10.0 mi Calm Calm - N/A   Clear
8:35 AM 27.9 °F 24.0 °F 16.7 °F 63% 30.10 in 10.0 mi SW 3.5 mph - N/A   Clear
8:55 AM 30.6 °F - 16.0 °F 55% 30.11 in 10.0 mi Calm Calm - N/A   Clear
9:15 AM 32.2 °F 26.7 °F 16.5 °F 53% 30.11 in 10.0 mi WSW 5.8 mph - N/A   Clear
9:35 AM 34.7 °F 28.8 °F 17.1 °F 49% 30.13 in 10.0 mi SW 6.9 mph - N/A   Clear
9:55 AM 37.4 °F 32.1 °F 17.4 °F 44% 30.13 in 10.0 mi SW 6.9 mph - N/A   Clear
10:15 AM 39.7 °F 34.3 °F 17.4 °F 41% 30.13 in 10.0 mi WSW 8.1 mph - N/A   Clear
10:35 AM 42.1 °F 38.4 °F 17.8 °F 38% 30.14 in 10.0 mi West 5.8 mph - N/A   Clear
10:55 AM 43.9 °F 39.3 °F 17.6 °F 35% 30.14 in 10.0 mi West 8.1 mph - N/A   Clear
11:15 AM 44.8 °F 39.0 °F 17.4 °F 33% 30.14 in 10.0 mi WSW 11.5 mph - N/A   Clear
11:35 AM 45.3 °F 40.6 °F 17.8 °F 33% 30.14 in 10.0 mi WSW 9.2 mph - N/A   Clear
11:55 AM 45.9 °F 40.4 °F 19.2 °F 35% 30.13 in 10.0 mi SW 11.5 mph 16.1 mph N/A   Clear
12:15 PM 46.8 °F - 19.2 °F 33% 30.12 in 10.0 mi SW 11.5 mph - N/A   Clear
12:35 PM 47.1 °F - 19.6 °F 34% 30.11 in 10.0 mi SW 9.2 mph - N/A   Clear
1:15 PM 48.0 °F - 19.8 °F 33% 30.10 in 10.0 mi SSW 9.2 mph - N/A   Clear
1:35 PM 48.2 °F - 19.2 °F 32% 30.09 in 10.0 mi SSW 9.2 mph - N/A   Clear
1:55 PM 49.1 °F - 19.2 °F 31% 30.09 in 10.0 mi SSW 11.5 mph - N/A   Clear
2:15 PM 49.6 °F - 19.8 °F 31% 30.08 in 10.0 mi SSW 10.4 mph - N/A   Clear
2:35 PM 49.5 °F - 19.4 °F 31% 30.08 in 10.0 mi SW 8.1 mph - N/A   Clear
2:55 PM 49.3 °F - 19.8 °F 31% 30.09 in 10.0 mi SW 9.2 mph 17.3 mph N/A   Clear
3:15 PM 49.5 °F - 19.6 °F 31% 30.09 in 10.0 mi SSW 8.1 mph - N/A   Clear
3:35 PM 49.5 °F - 20.1 °F 31% 30.08 in 10.0 mi SW 10.4 mph - N/A   Clear
4:15 PM 48.7 °F - 19.8 °F 32% 30.08 in 10.0 mi SSW 10.4 mph - N/A   Clear
4:35 PM 48.4 °F - 19.8 °F 32% 30.09 in 10.0 mi SSW 10.4 mph - N/A   Clear
4:55 PM 47.1 °F - 20.3 °F 35% 30.09 in 10.0 mi SW 5.8 mph - N/A   Clear
5:15 PM 44.6 °F 40.7 °F 19.6 °F 37% 30.10 in 10.0 mi SSW 6.9 mph - N/A   Clear
5:35 PM 41.5 °F 39.6 °F 18.3 °F 39% 30.10 in 10.0 mi SSW 3.5 mph - N/A   Clear
5:55 PM 39.7 °F 36.5 °F 17.6 °F 41% 30.10 in 10.0 mi SSW 4.6 mph - N/A   Clear
6:15 PM 39.4 °F 35.2 °F 18.0 °F 42% 30.10 in 10.0 mi SSW 5.8 mph - N/A   Clear
6:35 PM 38.1 °F 35.7 °F 18.5 °F 45% 30.11 in 10.0 mi South 3.5 mph - N/A   Clear
7:15 PM 35.6 °F 32.8 °F 16.9 °F 47% 30.13 in 10.0 mi SSW 3.5 mph - N/A   Clear
7:35 PM 34.9 °F 30.8 °F 17.2 °F 49% 30.13 in 10.0 mi SSW 4.6 mph - N/A   Clear
7:55 PM 34.0 °F 29.8 °F 18.3 °F 53% 30.13 in 10.0 mi South 4.6 mph - N/A   Clear
8:15 PM 32.7 °F 28.3 °F 16.9 °F 52% 30.13 in 10.0 mi SSW 4.6 mph - N/A   Clear
8:35 PM 33.4 °F 28.1 °F 17.1 °F 51% 30.14 in 10.0 mi SSW 5.8 mph - N/A   Clear
8:55 PM 32.5 °F 27.1 °F 17.6 °F 54% 30.14 in 10.0 mi South 5.8 mph - N/A   Clear
9:15 PM 33.3 °F 27.9 °F 18.1 °F 54% 30.14 in 10.0 mi South 5.8 mph - N/A   Clear
9:35 PM 32.4 °F 27.9 °F 17.8 °F 55% 30.15 in 10.0 mi South 4.6 mph - N/A   Clear
9:55 PM 32.0 °F 27.5 °F 18.0 °F 56% 30.16 in 10.0 mi South 4.6 mph - N/A   Clear
10:15 PM 32.0 °F 26.4 °F 18.5 °F 58% 30.15 in 10.0 mi South 5.8 mph - N/A   Clear
10:35 PM 32.0 °F 26.4 °F 18.7 °F 58% 30.16 in 10.0 mi South 5.8 mph - N/A   Clear
10:55 PM 32.0 °F 25.6 °F 18.5 °F 58% 30.16 in 10.0 mi South 6.9 mph - N/A   Clear
11:15 PM 32.4 °F 26.0 °F 19.2 °F 58% 30.16 in 10.0 mi South 6.9 mph - N/A   Clear
11:35 PM 32.4 °F 26.0 °F 19.4 °F 59% 30.17 in 10.0 mi South 6.9 mph - N/A   Clear
11:55 PM 32.4 °F 25.3 °F 19.4 °F 59% 30.16 in 10.0 mi South 8.1 mph - N/A   Clear